sat.trackr.live / text

‹ back to catalog

STARLINK-37822

NORAD 69424 · 2026-126E

PAYLOAD ACTIVE UNKNOWN

§ Identity

Operator
Country
US
Launch date
2026-06-07
Launch site
AFWTR
Launch vehicle
Mass (kg)
RCS (m²)

Purposes: comms

External: N2YO · Heavens-Above · Gunter

§ Orbital elements

Epoch: 2026-09-19T08:52:55.113312Z

Period
93.91 min
Inclination
97.2844°
Eccentricity
0.0001599
Mean motion
15.33464377 rev/d
Perigee alt
464.4 km
Apogee alt
466.6 km
Semi-major
6,843.6 km
B*
4.1867e-4
RAAN
123.6582°
Arg perigee
96.1403°
Mean anomaly
264.0022°
Rev number
1,735

§ Raw data

STARLINK-378221 69424U 26126E   26262.37008233  .00013474  00000+0  41867-3 0  99932 69424  97.2844 123.6582 0001599  96.1403 264.0022 15.33464377 17350

JSON: /api/v1/satellites/69424 · /tle

For live sub-satellite position, see the globe view (requires WebGL).

§ Visibility from observer

Set your observer location to see the next 7 days of passes ≥ 10°. The values pass through the URL so the page stays shareable.

No JS? Fill the form by hand. The geolocation button needs JavaScript.